Glens Falls, NY

10:18 AM EDT on June 18, 2018 (GMT -0400)
Bennett Memorial

Weather History for KGFL - June, 2018

Change the Weather History Date:

Thursday, June 14, 2018

  Actual Average Record
Temperature  
Mean Temperature 64 °F 64 °F  
Max Temperature 70 °F 76 °F 94 °F (1988)
Min Temperature 58 °F 52 °F 39 °F (1979)
Degree Days  
Heating Degree Days 1 3  
Month to date heating degree days 62 60  
Since 1 June heating degree days 62 60  
Since 1 July heating degree days 7337 7646  
Cooling Degree Days 0 2  
Month to date cooling degree days 10 21  
Year to date cooling degree days 35 33  
Since 1 June cooling degree days 10 21  
Growing Degree Days 14 (Base 50)    
Moisture  
Dew Point 54 °F    
Average Humidity 77    
Maximum Humidity 97    
Minimum Humidity 57    
Precipitation  
Precipitation 0.00 in 0.12 in 1.83 in (1998)
Month to date precipitation 2.03 1.66  
Year to date precipitation 13.47 16.15  
Sea Level Pressure  
Sea Level Pressure 29.73 in    
Wind  
Wind Speed 7 mph (WSW)    
Max Wind Speed 22 mph    
Max Gust Speed 29 mph    
Visibility 10 miles    
Events      
T = Trace of Precipitation, MM = Missing Value Source: NWS Daily Summary

Daily Weather History Graph

Daily Weather History Graph

Search for Another Location

Airport or City:

Astronomy

Jun. 14, 2018 Rise Set
Actual Time 5:13 AM EDT 8:36 PM EDT
Civil Twilight 4:37 AM EDT 9:11 PM EDT
Nautical Twilight 3:51 AM EDT 9:58 PM EDT
Astronomical Twilight 2:53 AM EDT 10:56 PM EDT
Moon 6:09 AM EDT (6/14) 9:32 PM EDT (6/14)
Length of Visible Light 16h 33m
Length of Day
15h 22m
New Moon, 1% of the Moon is Illuminated
Jun 14
New Moon
Jun 20
First Quarter
Jun 28
Full
Jul 6
Last Quarter
Jul 12
New

Hourly Weather History & Observations

Time (EDT) Temp. Dew Point Humidity Pressure Visibility Wind Dir Wind Speed Gust Speed Precip Events Conditions
12:53 AM 60.1 °F 59.0 °F 96% 29.67 in 10.0 mi South 5.8 mph - N/A   Mostly Cloudy
1:53 AM 64.0 °F 59.0 °F 84% 29.68 in 10.0 mi SSW 8.1 mph - N/A   Overcast
2:53 AM 62.1 °F 57.0 °F 84% 29.67 in 10.0 mi SSW 6.9 mph - N/A   Mostly Cloudy
3:53 AM 62.1 °F 55.0 °F 78% 29.67 in 10.0 mi SSW 6.9 mph - N/A   Overcast
4:53 AM 63.0 °F 54.0 °F 72% 29.67 in 10.0 mi SSW 9.2 mph - N/A   Overcast
5:53 AM 62.1 °F 53.1 °F 72% 29.66 in 10.0 mi South 6.9 mph - N/A   Overcast
6:53 AM 64.0 °F 52.0 °F 65% 29.66 in 10.0 mi SW 8.1 mph - N/A   Overcast
7:53 AM 66.0 °F 53.1 °F 63% 29.66 in 10.0 mi WSW 8.1 mph - N/A   Overcast
8:53 AM 64.9 °F 51.1 °F 61% 29.68 in 10.0 mi West 5.8 mph 19.6 mph N/A   Mostly Cloudy
9:53 AM 69.1 °F 53.1 °F 57% 29.67 in 10.0 mi WNW 16.1 mph 26.5 mph N/A   Mostly Cloudy
10:53 AM 64.9 °F 52.0 °F 63% 29.70 in 10.0 mi WNW 15.0 mph 28.8 mph N/A   Overcast
11:53 AM 64.9 °F 53.1 °F 65% 29.71 in 10.0 mi West 9.2 mph 17.3 mph N/A   Overcast
12:53 PM 64.0 °F 52.0 °F 65% 29.73 in 10.0 mi West 8.1 mph - N/A   Overcast
1:53 PM 64.9 °F 53.1 °F 65% 29.73 in 10.0 mi West 8.1 mph - N/A   Overcast
2:53 PM 66.9 °F 53.1 °F 61% 29.73 in 10.0 mi West 9.2 mph 19.6 mph N/A   Overcast
3:53 PM 66.9 °F 54.0 °F 63% 29.75 in 10.0 mi West 9.2 mph 18.4 mph N/A   Overcast
4:53 PM 66.9 °F 54.0 °F 63% 29.77 in 10.0 mi WNW 9.2 mph - N/A   Overcast
5:53 PM 64.9 °F 53.1 °F 65% 29.78 in 10.0 mi West 11.5 mph 19.6 mph N/A   Overcast
6:53 PM 64.0 °F 53.1 °F 67% 29.81 in 10.0 mi West 4.6 mph - N/A   Overcast
7:53 PM 63.0 °F 54.0 °F 72% 29.81 in 10.0 mi Calm Calm - N/A   Overcast
8:53 PM 62.1 °F 53.1 °F 72% 29.82 in 10.0 mi WSW 3.5 mph - N/A   Overcast
9:53 PM 62.1 °F 54.0 °F 75% 29.84 in 10.0 mi Calm Calm - N/A   Overcast
10:53 PM 60.1 °F 55.9 °F 86% 29.86 in 10.0 mi Calm Calm - N/A   Overcast
11:53 PM 60.1 °F 55.0 °F 83% 29.86 in 10.0 mi Calm Calm - N/A   Overcast